Regional Weather Roundup
Issued by NWS Green Bay, WI

Home | Current Version | Previous Version | Text Only | Print | Product List | Glossary On
Versions: 1 2 3 4 5 6 7 8 9 10 11 12 13 14 15 16 17 18 19 20 21 22 23 24 25 26 27 28 29 30 31 32 33 34 35 36 37 38 39 40 41 42 43 44 45 46 47 48 49 50
000
ASUS43 KGRB 250910
RWRGRB

NORTH-CENTRAL AND NORTHEAST WISCONSIN REGIONAL WEATHER ROUNDUP
NATIONAL WEATHER SERVICE GREEN BAY WI
400 AM CDT FRI JUL 25 2014

WIZ005-009-010>012-018-019-251000-
NORTH CENTRAL WISCONSIN

CITY           SKY/WX    TMP DP  RH WIND       PRES   REMARKS
IRONWOOD       NOT AVBL
MANITOWISH WTR PTCLDY    58  56  93 SE3       29.92F
ARBOR VITAE    MOCLDY    62  55  79 S5        29.94S
EAGLE RIVER    MOCLDY    58  52  81 CALM      29.94F
LAND O LAKES   CLOUDY    55  54  97 CALM      29.95F
RHINELANDER    PTCLDY    58  54  86 SW5       29.95F
PHILLIPS       MOCLDY    62  57  84 S5        29.93R
ANTIGO         CLOUDY    56  55  95 S6        29.97S
TOMAHAWK       PTCLDY    56  54  92 CALM      29.96R
MERRILL        PTCLDY    57  56  95 CALM      29.95S
$$

WIZ013-073-251000-
NORTHEAST WISCONSIN

CITY           SKY/WX    TMP DP  RH WIND       PRES   REMARKS
IRON MOUNTAIN  CLOUDY    60  54  80 SE5       29.94F
MARINETTE      CLOUDY    63  48  59 SW7       29.95F
OCONTO         MOCLDY    59  49  68 CALM      29.95F
$$

WIZ017-030-035>037-045-251000-
CENTRAL WISCONSIN

CITY           SKY/WX    TMP DP  RH WIND       PRES   REMARKS
MEDFORD        MOCLDY    61  58  90 S6        29.96R
WAUSAU         PTCLDY    63  58  83 S7        29.95S
MOSINEE        CLEAR     59  59 100 S7        29.97S
MARSHFIELD     MOCLDY    62  58  86 SW7       29.96R
WISC RAPIDS    PTCLDY    62  57  83 S8        29.98R
STEVENS POINT  CLEAR     60  55  85 S8        29.97R
WAUPACA        MOCLDY    60  55  82 S3        29.97F
SHAWANO        CLOUDY    63  51  67 CALM      29.96F
CLINTONVILLE   CLOUDY    59  50  72 S3        29.96F
$$

WIZ038-039-048-051-251000-
FOX VALLEY

CITY           SKY/WX    TMP DP  RH WIND       PRES   REMARKS
NWS GREEN BAY  CLOUDY    60  50  69 S7        29.96F
APPLETON       CLOUDY    61  48  63 S7        29.98F
OSHKOSH        MOCLDY    61  49  64 S10       29.97F
FOND DU LAC    MOCLDY    61  47  59 S8        29.99F
$$

WIZ022-050-052-251000-
EAST CENTRAL WISCONSIN

CITY           SKY/WX    TMP DP  RH WIND       PRES   REMARKS
STURGEON BAY   MOCLDY    61  45  55 SW10      29.98S
MANITOWOC      LGT RAIN  62  47  57 SW5       29.99F
SHEBOYGAN      PTCLDY    58  46  64 SW7       29.99F
$$

LMZ563-521-522-541>543-251000-
LAKESHORE

STATION/POSITION TIME  TEMP    WIND        PRES    VSBY  WAVE
                       AIR SEA DIR/SP/G                  HT/PER
                 (UTC) (F)     (DEG/KT/KT) (MB)    (MI)  (FT/S)
SHEBOYGAN LKSHOR 0900   63     210/ 11/ 12 1015.6F
KEWAUNEE LKSHORE 0900   55     180/  3/  5 1015.9F
NORTHPORT PIER   0900   62     190/  3/  7 1014.6F
N MID LAKE BUOY  0900   58 53  220/  8/ 10 1014.8F         2/ 4
CHAMBERS ISLAND  0900   65     180/  5/ 10 1014.9S
MENOMINEE LKSHOR 0900   65     210/  6/ 10 1015.2S
$$



USA.gov is the U.S. government's official web portal to all federal, state and local government web resources and services.